Location: Recife
(8.0585°S, 34.8848°W)
Time: 20:49:17
(UTC-03:00)

S-56A Canister/Altair - Pass Details

Date: 22 April 2026
Orbit: 633 x 2484 km, 38.9° (Epoch: 16 May)

Event Time Altitude Azimuth Distance (km) Brightness Sun altitude
Rises 21:45:48 0° 224° (SW) 2,921 - -66.9°
Reaches altitude 10° 21:48:01 10° 220° (SW) 2,023 - -67.4°
Maximum altitude 21:52:27 60° 139° (SE) 794 - -68.5°
Drops below altitude 10° 21:57:51 10° 59° (ENE) 2,463 - -69.8°
Sets 22:00:48 0° 56° (NE) 3,629 - -70.5°
